This is the latest recevied weather packets stored in our database for station/object N1HQ. If no packets are shown the sender has not sent any weather packets the latest 10 day(s).
| Time | Temp. | Humidity | Pressure | Rain* | Wind** | Luminosity | Snow |
|---|---|---|---|---|---|---|---|
| 1777920753 | 26.11° C | 41% | 1014.5 hPa | 0 mm | - | - | - |
| 1777920473 | 26.67° C | 41% | 1014.5 hPa | 0 mm | - | - | - |
| 1777920213 | 26.67° C | 44% | 1014.4 hPa | 0 mm | - | - | - |
| 1777919928 | 26.11° C | 40% | 1014.6 hPa | 0 mm | - | - | - |
| 1777919638 | 26.11° C | 41% | 1014.6 hPa | 0 mm | - | - | - |
| 1777919365 | 26.11° C | 43% | 1014.7 hPa | 0 mm | - | - | - |
| 1777919123 | 26.11° C | 41% | 1014.6 hPa | 0 mm | - | - | - |
| 1777918873 | 26.11° C | 42% | 1014.6 hPa | 0 mm | - | - | - |
| 1777918603 | 26.67° C | 41% | 1014.7 hPa | 0 mm | - | - | - |
| 1777918348 | 26.11° C | 44% | 1014.9 hPa | 0 mm | - | - | - |
| 1777918078 | 26.11° C | 43% | 1014.7 hPa | 0 mm | - | - | - |
| 1777917813 | 26.11° C | 44% | 1014.8 hPa | 0 mm | - | - | - |
| 1777917513 | 25.56° C | 46% | 1014.9 hPa | 0 mm | - | - | - |
| 1777917233 | 25.56° C | 42% | 1015 hPa | 0 mm | - | - | - |
| 1777916965 | 25.56° C | 43% | 1014.9 hPa | 0 mm | - | - | - |
| 1777916673 | 25.56° C | 43% | 1014.9 hPa | 0 mm | - | - | - |
| 1777916373 | 25.56° C | 44% | 1014.9 hPa | 0 mm | - | - | - |
| 1777916088 | 26.11° C | 44% | 1014.9 hPa | 0 mm | - | - | - |
| 1777915805 | 26.11° C | 43% | 1014.8 hPa | 0 mm | - | - | - |
| 1777915513 | 26.11° C | 43% | 1015 hPa | 0 mm | - | - | - |
| 1777915242 | 26.11° C | 45% | 1015.1 hPa | 0 mm | - | - | - |
| 1777914948 | 25.56° C | 46% | 1015.2 hPa | 0 mm | - | - | - |
| 1777914703 | 25.56° C | 43% | 1015.2 hPa | 0 mm | - | - | - |
| 1777914453 | 25.56° C | 44% | 1015.3 hPa | 0 mm | - | - | - |
| 1777914188 | 25.56° C | 43% | 1015.4 hPa | 0 mm | - | - | - |
* Rain latest hour (hover to see other rain measurements)
** Current wind speed in m/s (hover to see current wind gust speed)